Date String (YYYY-MM-DD hh:mm:ss) UTC,Instrument flags,absolute air pressure of the measurement (hPa),sample flow rate (lpm),inlet stack bypass flow (lpm),air temperature of the measurement (°C),ambient temperature measured by the external sensor (°C),aerosol sample conditioner tube jacket temperature (°C),OPC LED temperature (°C),internal box temperature (°C),relative humidity of the measurement (%),span deviation,mass concentration of particles derived from Lorenz-Mie calculation of OPC scattering (μg/m³),mass concentration of particles derived from Lorenz-Mie calculation of OPC scattering (μg/m³),mass concentration of particles derived from Lorenz-Mie calculation of OPC scattering (μg/m³)
DateTimeUTC,F1_M11,P_M11,Q1_M11,Q2_M11,T1_M11,T2_M11,T3_M11,T4_M11,T5_M11,U1_M11,ZSPAN_M11,X0_M11,X2_M11,X1_M11
2023-08-20 06:00:00,SystemResetWarning,0837.0,4.99,000.00,032.2,026.8,000.0,039.5,031.0,34.4,0000.0,0011.05,0004.35,0003.45
2023-08-20 06:01:00,SystemResetWarning,0837.1,5.00,000.00,032.1,027.0,000.0,039.6,031.0,34.5,0000.0,0011.26,0004.32,0003.47
2023-08-20 06:02:00,SystemResetWarning,0837.1,5.00,000.00,032.1,027.2,000.0,039.6,031.1,34.5,0000.0,0010.86,0004.35,0003.49
2023-08-20 06:03:00,SystemResetWarning,0837.2,5.00,000.00,032.1,027.3,000.0,039.7,031.1,34.6,0000.0,0011.41,0004.36,0003.50
2023-08-20 06:04:00,SystemResetWarning,0837.2,5.00,000.00,032.0,027.5,000.0,039.7,031.2,34.6,0000.0,0012.01,0004.35,0003.51
2023-08-20 06:05:00,SystemResetWarning,0837.2,4.98,000.00,032.0,027.1,000.0,039.7,031.2,34.7,0000.0,0011.87,0004.33,0003.51
2023-08-20 06:06:00,SystemResetWarning,0837.2,5.01,000.00,032.0,025.3,000.0,039.5,030.9,34.6,0000.0,0011.89,0004.35,0003.54
2023-08-20 06:07:00,SystemResetWarning,0837.1,5.00,000.00,031.9,024.1,000.0,039.4,030.7,34.7,0000.0,0011.64,0004.35,0003.56
2023-08-20 06:08:00,SystemResetWarning,0837.1,5.00,000.00,031.7,024.0,000.0,039.3,030.4,34.7,0000.0,0011.53,0004.40,0003.58
2023-08-20 06:09:00,SystemResetWarning,0837.0,4.99,000.00,031.5,024.3,000.0,039.4,030.2,35.1,0000.0,0011.85,0004.44,0003.61
2023-08-20 06:10:00,SystemResetWarning,0837.0,5.02,000.00,031.4,024.8,000.0,039.4,030.4,35.2,0000.0,0011.21,0004.48,0003.63
2023-08-20 06:11:00,SystemResetWarning,0837.2,5.00,000.00,031.6,025.2,000.0,039.3,030.6,34.8,0000.0,0011.00,0004.47,0003.64
2023-08-20 06:12:00,SystemResetWarning,0837.2,4.99,000.00,031.7,025.6,000.0,039.3,030.8,34.5,0000.0,0010.67,0004.54,0003.68
2023-08-20 06:13:00,SystemResetWarning,0837.2,5.02,000.00,031.7,026.0,000.0,039.3,030.8,34.5,0000.0,0010.74,0004.52,0003.71
2023-08-20 06:14:00,SystemResetWarning,0837.2,5.00,000.00,031.7,026.3,000.0,039.3,030.9,34.6,0000.0,0010.06,0004.55,0003.76
2023-08-20 06:15:00,SystemResetWarning,0837.2,5.00,000.00,031.7,026.5,000.0,039.4,030.9,34.6,0000.0,0009.32,0004.59,0003.81
2023-08-20 06:16:00,SystemResetWarning,0837.2,5.00,000.00,031.6,026.8,000.0,039.4,030.9,34.7,0000.0,0009.13,0004.59,0003.85
2023-08-20 06:17:00,SystemResetWarning,0837.3,4.99,000.00,031.6,027.0,000.0,039.4,030.9,34.6,0000.0,0009.18,0004.61,0003.88
2023-08-20 06:18:00,SystemResetWarning,0837.2,5.00,000.00,031.6,027.1,000.0,039.5,031.0,34.5,0000.0,0009.12,0004.62,0003.89
2023-08-20 06:19:00,SystemResetWarning,0837.3,5.00,000.00,031.5,027.2,000.0,039.5,031.0,34.4,0000.0,0009.07,0004.62,0003.91
2023-08-20 06:20:00,SystemResetWarning,0837.2,5.00,000.00,031.5,027.3,000.0,039.5,031.0,34.5,0000.0,0008.50,0004.67,0003.94
2023-08-20 06:21:00,SystemResetWarning,0837.4,5.00,000.00,031.5,027.4,000.0,039.5,031.1,34.4,0000.0,0008.45,0004.68,0003.98
2023-08-20 06:22:00,SystemResetWarning,0837.2,4.98,000.00,031.4,026.2,000.0,039.4,030.9,34.4,0000.0,0008.57,0004.72,0004.01
2023-08-20 06:23:00,SystemResetWarning,0837.2,5.01,000.00,031.4,025.0,000.0,039.2,030.7,34.4,0000.0,0008.61,0004.73,0004.02
2023-08-20 06:24:00,SystemResetWarning,0837.2,5.01,000.00,031.2,024.7,000.0,039.2,030.5,34.6,0000.0,0008.46,0004.75,0004.04
2023-08-20 06:25:00,SystemResetWarning,0837.2,4.98,000.00,031.0,024.9,000.0,039.2,030.4,35.0,0000.0,0010.05,0004.77,0004.02
2023-08-20 06:26:00,SystemResetWarning,0837.2,5.02,000.00,031.0,025.3,000.0,039.2,030.5,35.2,0000.0,0010.25,0004.77,0004.02
2023-08-20 06:27:00,SystemResetWarning,0837.2,5.02,000.00,031.1,025.7,000.0,039.1,030.7,34.9,0000.0,0010.34,0004.82,0004.04
2023-08-20 06:28:00,SystemResetWarning,0837.2,4.97,000.00,031.3,026.0,000.0,039.1,030.8,34.6,0000.0,0010.55,0004.80,0004.05
2023-08-20 06:29:00,SystemResetWarning,0837.2,5.01,000.00,031.4,026.3,000.0,039.1,030.9,34.4,0000.0,0011.35,0004.84,0004.07
2023-08-20 06:30:00,SystemResetWarning,0837.2,5.01,000.00,031.4,026.6,000.0,039.1,030.9,34.3,0000.0,0011.55,0004.87,0004.11
2023-08-20 06:31:00,SystemResetWarning,0837.2,4.99,000.00,031.4,026.8,000.0,039.2,030.9,34.2,0000.0,0011.48,0004.87,0004.14
2023-08-20 06:32:00,SystemResetWarning,0837.2,5.00,000.00,031.4,027.0,000.0,039.2,030.9,34.2,0000.0,0011.93,0004.92,0004.15
2023-08-20 06:33:00,SystemResetWarning,0837.2,5.00,000.00,031.3,027.1,000.0,039.2,030.9,34.2,0000.0,0011.90,0004.96,0004.18
2023-08-20 06:34:00,SystemResetWarning,0837.3,5.01,000.00,031.3,027.2,000.0,039.3,031.0,34.3,0000.0,0011.85,0004.96,0004.21
2023-08-20 06:35:00,SystemResetWarning,0837.4,5.00,000.00,031.3,027.3,000.0,039.3,031.0,34.3,0000.0,0011.95,0005.01,0004.23
2023-08-20 06:36:00,SystemResetWarning,0837.4,4.99,000.00,031.3,026.9,000.0,039.2,031.0,34.2,0000.0,0010.50,0005.04,0004.28
2023-08-20 06:37:00,SystemResetWarning,0837.3,4.99,000.00,031.2,025.3,000.0,039.1,030.7,34.3,0000.0,0010.61,0005.08,0004.31
2023-08-20 06:38:00,SystemResetWarning,0837.4,5.01,000.00,031.1,024.7,000.0,039.0,030.5,34.5,0000.0,0010.91,0005.10,0004.32
2023-08-20 06:39:00,SystemResetWarning,0837.3,4.99,000.00,030.9,024.8,000.0,039.0,030.2,34.9,0000.0,0010.86,0005.16,0004.34
2023-08-20 06:40:00,SystemResetWarning,0837.2,5.02,000.00,030.8,025.1,000.0,039.0,030.3,35.2,0000.0,0010.03,0005.16,0004.36
2023-08-20 06:41:00,SystemResetWarning,0837.3,4.99,000.00,030.9,025.5,000.0,039.0,030.5,34.8,0000.0,0009.77,0005.12,0004.34
2023-08-20 06:42:00,SystemResetWarning,0837.3,4.99,000.00,031.0,025.9,000.0,038.9,030.7,34.6,0000.0,0009.81,0005.13,0004.33
2023-08-20 06:43:00,SystemResetWarning,0837.2,5.02,000.00,031.1,026.2,000.0,038.9,030.7,34.5,0000.0,0009.41,0005.12,0004.33
2023-08-20 06:44:00,SystemResetWarning,0837.3,5.00,000.00,031.1,026.5,000.0,039.0,030.8,34.5,0000.0,0009.34,0005.09,0004.33
2023-08-20 06:45:00,SystemResetWarning,0837.3,4.98,000.00,031.1,026.7,000.0,039.0,030.8,34.4,0000.0,0009.47,0005.14,0004.33
2023-08-20 06:46:00,SystemResetWarning,0837.2,5.00,000.00,031.0,026.9,000.0,039.0,030.8,34.3,0000.0,0009.57,0005.16,0004.31
2023-08-20 06:47:00,SystemResetWarning,0837.2,5.00,000.00,031.0,027.0,000.0,039.0,030.8,34.3,0000.0,0009.47,0005.10,0004.29
2023-08-20 06:48:00,SystemResetWarning,0837.2,5.00,000.00,031.0,027.2,000.0,039.1,030.8,34.3,0000.0,0009.09,0005.05,0004.27
2023-08-20 06:49:00,SystemResetWarning,0837.2,5.01,000.00,031.0,027.3,000.0,039.1,030.9,34.2,0000.0,0008.71,0005.03,0004.28
2023-08-20 06:50:00,SystemResetWarning,0837.2,5.01,000.00,030.9,027.4,000.0,039.1,030.9,34.2,0000.0,0008.45,0004.98,0004.27
2023-08-20 06:51:00,SystemResetWarning,0837.2,4.98,000.00,030.9,026.7,000.0,039.0,030.8,34.1,0000.0,0008.41,0004.96,0004.25
2023-08-20 06:52:00,SystemResetWarning,0837.2,5.00,000.00,030.9,025.2,000.0,038.9,030.7,34.1,0000.0,0008.52,0004.98,0004.26
2023-08-20 06:53:00,SystemResetWarning,0837.2,5.01,000.00,030.8,024.7,000.0,038.8,030.6,34.1,0000.0,0008.40,0004.94,0004.27
2023-08-20 06:54:00,SystemResetWarning,0837.2,5.01,000.00,030.6,024.8,000.0,038.8,030.4,34.4,0000.0,0009.12,0004.95,0004.27
2023-08-20 06:55:00,SystemResetWarning,0837.3,5.00,000.00,030.5,025.2,000.0,038.8,030.3,34.7,0000.0,0009.39,0004.93,0004.26
2023-08-20 06:56:00,SystemResetWarning,0837.2,5.00,000.00,030.4,025.5,000.0,038.7,030.4,34.8,0000.0,0009.83,0004.88,0004.26
2023-08-20 06:57:00,SystemResetWarning,0837.3,4.99,000.00,030.3,025.9,000.0,038.7,030.4,35.0,0000.0,0009.65,0004.83,0004.26
2023-08-20 06:58:00,SystemResetWarning,0837.3,5.01,000.00,030.3,026.2,000.0,038.7,030.5,35.0,0000.0,0009.82,0004.85,0004.27
2023-08-20 06:59:00,SystemResetWarning,0837.4,5.00,000.00,030.4,026.5,000.0,038.7,030.7,34.6,0000.0,0009.97,0004.87,0004.29
